| time (UTC) | temp F | wind direction | speed MPH | gust MPH | rain 1hr in | rain 24hr in | rain mn in | humidity % | barometer mb |
| 20260906020922 | 74 | 45 | 0.0 | 12.0 | 0.00 | 0.00 | 0.00 | 92 | 943.5 |
| 20260906020421 | 74 | 266 | 2.0 | 12.0 | 0.00 | 0.00 | 0.00 | 92 | 943.5 |
| 20260906015920 | 74 | 283 | 3.0 | 12.0 | 0.00 | 0.00 | 0.00 | 92 | 943.7 |
| 20260906015418 | 75 | 208 | 2.0 | 12.0 | 0.00 | 0.00 | 0.00 | 92 | 943.8 |
| 20260906014917 | 74 | 238 | 3.0 | 12.0 | 0.00 | 0.00 | 0.00 | 92 | 943.8 |
| 20260906014416 | 75 | 275 | 0.0 | 12.0 | 0.00 | 0.00 | 0.00 | 91 | 943.8 |
| 20260906013915 | 75 | 272 | 2.0 | 12.0 | 0.00 | 0.00 | 0.00 | 90 | 943.9 |
| 20260906013414 | 75 | 322 | 0.0 | 12.0 | 0.00 | 0.00 | 0.00 | 88 | 944.0 |
| 20260906012913 | 75 | 46 | 1.0 | 12.0 | 0.00 | 0.00 | 0.00 | 87 | 943.9 |
| 20260906012412 | 76 | 93 | 1.0 | 12.0 | 0.00 | 0.00 | 0.00 | 87 | 943.6 |
| 20260906011911 | 76 | 67 | 2.0 | 12.0 | 0.00 | 0.00 | 0.00 | 86 | 943.7 |
| 20260906011410 | 76 | 76 | 2.0 | 12.0 | 0.00 | 0.00 | 0.00 | 87 | 943.7 |
| 20260906010909 | 76 | 108 | 4.0 | 12.0 | 0.00 | 0.00 | 0.00 | 85 | 943.8 |
| 20260906010408 | 76 | 75 | 2.0 | 12.0 | 0.00 | 0.00 | 0.00 | 86 | 943.6 |
| 20260906005907 | 76 | 110 | 2.0 | 12.0 | 0.00 | 0.00 | 0.00 | 86 | 943.9 |
| 20260906005406 | 76 | 96 | 3.0 | 12.0 | 0.00 | 0.00 | 0.00 | 88 | 943.9 |
| 20260906004905 | 75 | 94 | 1.0 | 12.0 | 0.00 | 0.00 | 0.00 | 88 | 943.8 |
| 20260906004404 | 75 | 118 | 3.0 | 12.0 | 0.00 | 0.00 | 0.00 | 90 | 944.1 |
| 20260906003903 | 75 | 102 | 3.0 | 12.0 | 0.00 | 0.00 | 0.00 | 92 | 943.9 |
| 20260906003402 | 74 | 357 | 1.0 | 12.0 | 0.00 | 0.00 | 0.00 | 91 | 944.0 |
| 20260906002901 | 74 | 173 | 3.0 | 12.0 | 0.00 | 0.00 | 0.00 | 92 | 944.0 |
| 20260906002400 | 75 | 247 | 3.0 | 12.0 | 0.00 | 0.00 | 0.00 | 90 | 944.4 |
| 20260906001859 | 76 | 244 | 3.0 | 12.0 | 0.00 | 0.00 | 0.00 | 90 | 944.2 |
| 20260906001358 | 76 | 154 | 3.0 | 12.0 | 0.00 | 0.00 | 0.00 | 87 | 944.1 |
| 20260906000857 | 77 | 129 | 0.0 | 12.0 | 0.00 | 0.00 | 0.00 | 86 | 944.2 |
| 20260906000356 | 78 | 214 | 3.0 | 12.0 | 0.00 | 0.00 | 0.00 | 84 | 944.3 |
| 20260905235855 | 78 | 270 | 0.0 | 12.0 | 0.00 | 0.00 | 0.00 | 84 | 944.5 |
| 20260905235354 | 78 | 357 | 2.0 | 12.0 | 0.00 | 0.00 | 0.00 | 79 | 944.3 |
| 20260905234853 | 79 | 286 | 1.0 | 12.0 | 0.00 | 0.00 | 0.00 | 79 | 944.5 |
| 20260905234352 | 80 | 56 | 1.0 | 12.0 | 0.00 | 0.00 | 0.00 | 78 | 944.5 |
| 20260905233851 | 80 | 65 | 2.0 | 12.0 | 0.00 | 0.00 | 0.00 | 81 | 944.5 |
| 20260905233350 | 79 | 61 | 2.0 | 12.0 | 0.00 | 0.00 | 0.00 | 82 | 944.8 |
| 20260905232848 | 79 | 83 | 5.0 | 12.0 | 0.00 | 0.00 | 0.00 | 81 | 944.6 |
| 20260905232347 | 79 | 53 | 4.0 | 12.0 | 0.00 | 0.00 | 0.00 | 82 | 944.9 |
| 20260905231846 | 79 | 107 | 4.0 | 12.0 | 0.00 | 0.00 | 0.00 | 83 | 944.8 |
| 20260905231345 | 78 | 74 | 0.0 | 12.0 | 0.00 | 0.00 | 0.00 | 85 | 944.9 |
| 20260905230844 | 78 | 119 | 6.0 | 12.0 | 0.00 | 0.00 | 0.00 | 83 | 944.8 |
| 20260905230343 | 78 | 165 | 3.0 | 12.0 | 0.00 | 0.00 | 0.00 | 82 | 944.9 |
| 20260905225842 | 78 | 146 | 3.0 | 12.0 | 0.00 | 0.00 | 0.00 | 80 | 945.1 |
| 20260905225341 | 79 | 142 | 2.0 | 12.0 | 0.00 | 0.00 | 0.00 | 82 | 945.4 |
| 20260905224840 | 80 | 103 | 3.0 | 12.0 | 0.00 | 0.00 | 0.00 | 78 | 945.6 |
| 20260905224339 | 80 | 59 | 2.0 | 12.0 | 0.00 | 0.00 | 0.00 | 78 | 945.6 |
| 20260905223321 | 80 | 35 | 3.0 | 12.0 | 0.00 | 0.00 | 0.00 | 80 | 945.5 |
| 20260905222306 | 80 | 61 | 3.0 | 11.0 | 0.00 | 0.00 | 0.00 | 78 | 945.7 |
| 20260905221803 | 80 | 66 | 3.0 | 11.0 | 0.00 | 0.00 | 0.00 | 81 | 945.5 |
| 20260905221301 | 79 | 83 | 5.0 | 11.0 | 0.00 | 0.00 | 0.00 | 81 | 945.8 |
| 20260905220800 | 79 | 69 | 4.0 | 11.0 | 0.00 | 0.00 | 0.00 | 81 | 945.6 |
| 20260905215743 | 79 | 76 | 2.0 | 12.0 | 0.00 | 0.00 | 0.00 | 84 | 945.5 |
| 20260905215242 | 79 | 59 | 3.0 | 12.0 | 0.00 | 0.00 | 0.00 | 81 | 945.5 |
| 20260905214741 | 79 | 50 | 3.0 | 12.0 | 0.00 | 0.00 | 0.00 | 83 | 945.6 |
| 20260905214240 | 79 | 38 | 4.0 | 12.0 | 0.00 | 0.00 | 0.00 | 81 | 945.5 |
| 20260905213739 | 78 | 64 | 3.0 | 12.0 | 0.00 | 0.00 | 0.00 | 81 | 945.5 |
| 20260905212206 | 78 | 70 | 4.0 | 11.0 | 0.00 | 0.00 | 0.00 | 81 | 945.6 |
| 20260905211705 | 78 | 41 | 4.0 | 11.0 | 0.00 | 0.00 | 0.00 | 83 | 945.8 |
| 20260905211205 | 78 | 38 | 3.0 | 11.0 | 0.00 | 0.00 | 0.00 | 82 | 945.5 |
| 20260905210703 | 77 | 72 | 3.0 | 11.0 | 0.00 | 0.00 | 0.00 | 83 | 945.6 |
| 20260905210202 | 77 | 57 | 5.0 | 12.0 | 0.00 | 0.00 | 0.00 | 82 | 945.4 |
| 20260905205145 | 77 | 50 | 6.0 | 12.0 | 0.00 | 0.00 | 0.00 | 81 | 945.5 |
| 20260905204644 | 76 | 47 | 7.0 | 13.0 | 0.00 | 0.00 | 0.00 | 81 | 945.5 |
| 20260905203626 | 76 | 41 | 6.0 | 12.0 | 0.00 | 0.00 | 0.00 | 80 | 945.2 |
| 20260905203125 | 76 | 44 | 5.0 | 13.0 | 0.00 | 0.00 | 0.00 | 82 | 945.1 |
| 20260905202624 | 76 | 44 | 5.0 | 13.0 | 0.00 | 0.00 | 0.00 | 84 | 945.4 |
| 20260905202123 | 75 | 55 | 6.0 | 14.0 | 0.00 | 0.00 | 0.00 | 83 | 945.3 |
| 20260905201622 | 75 | 43 | 6.0 | 14.0 | 0.00 | 0.00 | 0.00 | 81 | 945.4 |
| 20260905201121 | 75 | 41 | 6.0 | 12.0 | 0.00 | 0.00 | 0.00 | 82 | 945.2 |
| 20260905200620 | 75 | 46 | 7.0 | 12.0 | 0.00 | 0.00 | 0.00 | 81 | 945.1 |
| 20260905200120 | 75 | 47 | 5.0 | 13.0 | 0.00 | 0.00 | 0.00 | 83 | 945.3 |
| 20260905195618 | 75 | 41 | 7.0 | 13.0 | 0.00 | 0.00 | 0.00 | 82 | 945.3 |
| 20260905195117 | 74 | 40 | 6.0 | 13.0 | 0.00 | 0.00 | 0.00 | 82 | 945.1 |
| 20260905194616 | 74 | 39 | 6.0 | 13.0 | 0.00 | 0.00 | 0.00 | 83 | 945.3 |
| 20260905194115 | 74 | 42 | 5.0 | 13.0 | 0.00 | 0.00 | 0.00 | 83 | 945.3 |
| 20260905193614 | 74 | 33 | 6.0 | 13.0 | 0.00 | 0.00 | 0.00 | 82 | 945.1 |
| 20260905193113 | 74 | 52 | 5.0 | 13.0 | 0.00 | 0.00 | 0.00 | 82 | 945.5 |
| 20260905192613 | 74 | 33 | 6.0 | 15.0 | 0.00 | 0.00 | 0.00 | 83 | 945.1 |
| 20260905192110 | 74 | 42 | 6.0 | 15.0 | 0.00 | 0.00 | 0.00 | 82 | 945.1 |
| 20260905191610 | 74 | 41 | 6.0 | 15.0 | 0.00 | 0.00 | 0.00 | 81 | 945.4 |
| 20260905191108 | 73 | 41 | 6.0 | 13.0 | 0.00 | 0.00 | 0.00 | 83 | 945.4 |
| 20260905190607 | 73 | 44 | 7.0 | 15.0 | 0.00 | 0.00 | 0.00 | 83 | 944.9 |
| 20260905190105 | 73 | 40 | 8.0 | 15.0 | 0.00 | 0.00 | 0.00 | 81 | 944.8 |
| 20260905185604 | 73 | 41 | 7.0 | 15.0 | 0.00 | 0.00 | 0.00 | 82 | 945.3 |
| 20260905184031 | 72 | 41 | 4.0 | 13.0 | 0.00 | 0.00 | 0.00 | 83 | 945.1 |
| 20260905183530 | 72 | 48 | 6.0 | 13.0 | 0.00 | 0.00 | 0.00 | 83 | 945.0 |
| 20260905182512 | 71 | 43 | 6.0 | 14.0 | 0.00 | 0.00 | 0.00 | 83 | 944.8 |
| 20260905182011 | 71 | 44 | 6.0 | 14.0 | 0.00 | 0.00 | 0.00 | 84 | 944.7 |
| 20260905181510 | 71 | 40 | 6.0 | 13.0 | 0.00 | 0.00 | 0.00 | 85 | 944.8 |
| 20260905181009 | 71 | 43 | 6.0 | 13.0 | 0.00 | 0.00 | 0.00 | 85 | 944.5 |
| 20260905180508 | 70 | 45 | 7.0 | 13.0 | 0.00 | 0.00 | 0.00 | 85 | 944.9 |
| 20260905175450 | 70 | 45 | 6.0 | 13.0 | 0.00 | 0.00 | 0.00 | 87 | 944.7 |
| 20260905174949 | 70 | 43 | 6.0 | 13.0 | 0.00 | 0.00 | 0.00 | 88 | 944.5 |
| 20260905174448 | 69 | 47 | 4.0 | 13.0 | 0.00 | 0.00 | 0.00 | 89 | 944.8 |
| 20260905173947 | 69 | 45 | 6.0 | 13.0 | 0.00 | 0.00 | 0.00 | 88 | 944.6 |
| 20260905173446 | 69 | 48 | 5.0 | 13.0 | 0.00 | 0.00 | 0.00 | 89 | 944.6 |
| 20260905172945 | 68 | 49 | 5.0 | 13.0 | 0.00 | 0.00 | 0.00 | 89 | 944.7 |
| 20260905172443 | 68 | 48 | 6.0 | 13.0 | 0.00 | 0.00 | 0.00 | 89 | 944.3 |
| 20260905171943 | 68 | 45 | 6.0 | 12.0 | 0.00 | 0.00 | 0.00 | 90 | 944.9 |
| 20260905171442 | 67 | 54 | 5.0 | 12.0 | 0.00 | 0.00 | 0.00 | 91 | 944.4 |
| 20260905170941 | 67 | 49 | 5.0 | 12.0 | 0.00 | 0.00 | 0.00 | 92 | 944.3 |
| 20260905170440 | 66 | 43 | 5.0 | 12.0 | 0.00 | 0.00 | 0.00 | 93 | 944.3 |
| 20260905165423 | 66 | 46 | 6.0 | 12.0 | 0.00 | 0.00 | 0.00 | 94 | 944.4 |
| 20260905164922 | 65 | 47 | 5.0 | 12.0 | 0.00 | 0.00 | 0.00 | 94 | 944.4 |
| 20260905164420 | 65 | 49 | 5.0 | 12.0 | 0.00 | 0.00 | 0.00 | 94 | 944.4 |
| 20260905162847 | 65 | 38 | 5.0 | 12.0 | 0.00 | 0.00 | 0.00 | 93 | 944.3 |
| 20260905162346 | 65 | 45 | 5.0 | 12.0 | 0.00 | 0.00 | 0.00 | 92 | 943.9 |
| 20260905161845 | 65 | 43 | 6.0 | 12.0 | 0.00 | 0.00 | 0.00 | 92 | 944.1 |
| 20260905161344 | 65 | 36 | 6.0 | 12.0 | 0.00 | 0.00 | 0.00 | 91 | 944.0 |
| 20260905160842 | 65 | 51 | 4.0 | 12.0 | 0.00 | 0.00 | 0.00 | 91 | 944.2 |
| 20260905155309 | 66 | 47 | 5.0 | 12.0 | 0.00 | 0.00 | 0.00 | 89 | 943.8 |
| 20260905154808 | 66 | 49 | 4.0 | 12.0 | 0.00 | 0.00 | 0.00 | 88 | 944.0 |
| 20260905153751 | 66 | 41 | 4.0 | 12.0 | 0.00 | 0.00 | 0.00 | 88 | 944.2 |
| 20260905153250 | 66 | 51 | 4.0 | 12.0 | 0.00 | 0.00 | 0.00 | 88 | 944.0 |
| 20260905152749 | 66 | 52 | 3.0 | 12.0 | 0.00 | 0.00 | 0.00 | 88 | 944.1 |
| 20260905152248 | 66 | 51 | 2.0 | 12.0 | 0.00 | 0.00 | 0.00 | 88 | 944.3 |
| 20260905151231 | 66 | 36 | 4.0 | 12.0 | 0.00 | 0.00 | 0.00 | 89 | 944.4 |
| 20260905150730 | 65 | 39 | 3.0 | 12.0 | 0.00 | 0.00 | 0.00 | 89 | 944.3 |
| 20260905150229 | 65 | 44 | 3.0 | 12.0 | 0.00 | 0.00 | 0.00 | 88 | 944.2 |
| 20260905145728 | 66 | 42 | 4.0 | 12.0 | 0.00 | 0.00 | 0.00 | 88 | 944.3 |
| 20260905145227 | 66 | 48 | 3.0 | 12.0 | 0.00 | 0.00 | 0.00 | 88 | 944.2 |
| 20260905144726 | 66 | 52 | 4.0 | 12.0 | 0.00 | 0.00 | 0.00 | 88 | 944.2 |
| 20260905144224 | 66 | 59 | 4.0 | 12.0 | 0.00 | 0.00 | 0.00 | 88 | 943.9 |
| 20260905143723 | 65 | 37 | 6.0 | 12.0 | 0.00 | 0.00 | 0.00 | 88 | 943.7 |
| 20260905142706 | 65 | 40 | 5.0 | 12.0 | 0.00 | 0.00 | 0.00 | 88 | 944.0 |
| 20260905142205 | 65 | 42 | 4.0 | 13.0 | 0.00 | 0.00 | 0.00 | 88 | 944.1 |
| 20260905141148 | 65 | 54 | 3.0 | 13.0 | 0.00 | 0.00 | 0.00 | 88 | 944.0 |
| 20260905140647 | 65 | 45 | 3.0 | 13.0 | 0.00 | 0.00 | 0.00 | 88 | 943.9 |
| 20260905140146 | 65 | 48 | 3.0 | 13.0 | 0.00 | 0.00 | 0.00 | 89 | 943.9 |
| 20260905135645 | 65 | 56 | 4.0 | 13.0 | 0.00 | 0.00 | 0.00 | 90 | 944.1 |
| 20260905135144 | 65 | 54 | 3.0 | 13.0 | 0.00 | 0.00 | 0.00 | 90 | 944.3 |
| 20260905134643 | 64 | 54 | 4.0 | 13.0 | 0.00 | 0.00 | 0.00 | 91 | 943.8 |
| 20260905134142 | 64 | 61 | 3.0 | 11.0 | 0.00 | 0.00 | 0.00 | 90 | 944.2 |
| 20260905133124 | 64 | 51 | 5.0 | 12.0 | 0.00 | 0.00 | 0.00 | 90 | 944.3 |
| 20260905132623 | 64 | 46 | 3.0 | 12.0 | 0.00 | 0.00 | 0.00 | 89 | 944.3 |
| 20260905132121 | 64 | 49 | 3.0 | 12.0 | 0.00 | 0.00 | 0.00 | 88 | 944.2 |
| 20260905131104 | 64 | 39 | 4.0 | 12.0 | 0.00 | 0.00 | 0.00 | 87 | 943.9 |
| 20260905130603 | 64 | 54 | 4.0 | 12.0 | 0.00 | 0.00 | 0.00 | 88 | 943.8 |
| 20260905125601 | 64 | 50 | 5.0 | 12.0 | 0.00 | 0.00 | 0.00 | 89 | 944.0 |
| 20260905125100 | 64 | 44 | 6.0 | 12.0 | 0.00 | 0.00 | 0.00 | 90 | 944.2 |
| 20260905124559 | 64 | 39 | 6.0 | 12.0 | 0.00 | 0.00 | 0.00 | 90 | 944.2 |
| 20260905124058 | 64 | 40 | 4.0 | 12.0 | 0.00 | 0.00 | 0.00 | 90 | 944.3 |
| 20260905123557 | 64 | 36 | 4.0 | 12.0 | 0.00 | 0.00 | 0.00 | 91 | 944.0 |
| 20260905123056 | 64 | 39 | 5.0 | 12.0 | 0.00 | 0.00 | 0.00 | 90 | 944.4 |
| 20260905121523 | 64 | 39 | 4.0 | 12.0 | 0.00 | 0.00 | 0.00 | 92 | 944.5 |
| 20260905121022 | 64 | 42 | 5.0 | 12.0 | 0.00 | 0.00 | 0.00 | 92 | 944.5 |
| 20260905120005 | 64 | 45 | 4.0 | 12.0 | 0.00 | 0.00 | 0.00 | 91 | 944.7 |
| 20260905115504 | 64 | 43 | 4.0 | 12.0 | 0.00 | 0.00 | 0.00 | 91 | 944.4 |
| 20260905114447 | 64 | 41 | 3.0 | 12.0 | 0.00 | 0.00 | 0.00 | 91 | 944.7 |
| 20260905113946 | 65 | 43 | 4.0 | 12.0 | 0.00 | 0.00 | 0.00 | 91 | 945.1 |
| 20260905113445 | 65 | 42 | 3.0 | 12.0 | 0.00 | 0.00 | 0.00 | 92 | 944.9 |
| 20260905112944 | 65 | 45 | 4.0 | 12.0 | 0.00 | 0.00 | 0.00 | 91 | 945.1 |
| 20260905112442 | 65 | 33 | 4.0 | 12.0 | 0.00 | 0.00 | 0.00 | 91 | 945.1 |
| 20260905111941 | 65 | 41 | 4.0 | 12.0 | 0.00 | 0.00 | 0.00 | 91 | 945.0 |
| 20260905111439 | 65 | 28 | 4.0 | 12.0 | 0.00 | 0.00 | 0.00 | 91 | 945.0 |
| 20260905110938 | 65 | 36 | 4.0 | 12.0 | 0.00 | 0.00 | 0.00 | 91 | 944.9 |
| 20260905110437 | 65 | 33 | 5.0 | 12.0 | 0.00 | 0.00 | 0.00 | 91 | 945.0 |
| 20260905105936 | 65 | 41 | 4.0 | 12.0 | 0.00 | 0.00 | 0.00 | 91 | 945.4 |
| 20260905105435 | 65 | 38 | 4.0 | 12.0 | 0.00 | 0.00 | 0.00 | 91 | 945.2 |
| 20260905104934 | 65 | 57 | 3.0 | 12.0 | 0.00 | 0.00 | 0.00 | 92 | 945.2 |
| 20260905104433 | 65 | 52 | 4.0 | 12.0 | 0.00 | 0.00 | 0.00 | 92 | 945.3 |
| 20260905103932 | 65 | 55 | 3.0 | 12.0 | 0.00 | 0.00 | 0.00 | 92 | 945.4 |
| 20260905102915 | 65 | 50 | 4.0 | 12.0 | 0.00 | 0.00 | 0.00 | 92 | 945.4 |
| 20260905102414 | 65 | 49 | 3.0 | 12.0 | 0.00 | 0.00 | 0.00 | 92 | 945.3 |
| 20260905101913 | 65 | 43 | 4.0 | 12.0 | 0.00 | 0.00 | 0.00 | 92 | 945.3 |
| 20260905101412 | 65 | 44 | 4.0 | 12.0 | 0.00 | 0.00 | 0.00 | 92 | 945.3 |
| 20260905100911 | 65 | 47 | 5.0 | 12.0 | 0.00 | 0.00 | 0.00 | 92 | 945.5 |
| 20260905095854 | 65 | 48 | 3.0 | 12.0 | 0.00 | 0.00 | 0.00 | 92 | 945.5 |
| 20260905095353 | 65 | 50 | 4.0 | 12.0 | 0.00 | 0.00 | 0.00 | 92 | 945.4 |
| 20260905094852 | 64 | 52 | 3.0 | 13.0 | 0.00 | 0.00 | 0.00 | 92 | 945.8 |
| 20260905094351 | 65 | 49 | 3.0 | 13.0 | 0.00 | 0.00 | 0.00 | 92 | 946.0 |
| 20260905093850 | 65 | 47 | 4.0 | 13.0 | 0.00 | 0.00 | 0.00 | 92 | 945.6 |
| 20260905093349 | 65 | 51 | 3.0 | 13.0 | 0.00 | 0.00 | 0.00 | 92 | 946.0 |
| 20260905092848 | 65 | 46 | 3.0 | 13.0 | 0.00 | 0.00 | 0.00 | 92 | 945.9 |
| 20260905092347 | 65 | 33 | 5.0 | 13.0 | 0.00 | 0.00 | 0.00 | 92 | 945.9 |
| 20260905091846 | 65 | 38 | 4.0 | 13.0 | 0.00 | 0.00 | 0.00 | 91 | 945.9 |
| 20260905085756 | 65 | 30 | 5.0 | 13.0 | 0.00 | 0.00 | 0.00 | 91 | 945.8 |
| 20260905085255 | 65 | 28 | 5.0 | 13.0 | 0.00 | 0.00 | 0.00 | 91 | 945.7 |
| 20260905083722 | 65 | 18 | 4.0 | 13.0 | 0.00 | 0.00 | 0.00 | 91 | 945.7 |
| 20260905083221 | 65 | 29 | 6.0 | 13.0 | 0.00 | 0.00 | 0.00 | 91 | 945.7 |
| 20260905082720 | 65 | 22 | 5.0 | 12.0 | 0.00 | 0.00 | 0.00 | 90 | 945.7 |
| 20260905082219 | 65 | 30 | 6.0 | 12.0 | 0.00 | 0.00 | 0.00 | 90 | 945.7 |
| 20260905081718 | 65 | 19 | 5.0 | 12.0 | 0.00 | 0.00 | 0.00 | 91 | 945.8 |
| 20260905081217 | 65 | 30 | 4.0 | 12.0 | 0.00 | 0.00 | 0.00 | 90 | 945.8 |
| 20260905080716 | 66 | 29 | 6.0 | 13.0 | 0.00 | 0.00 | 0.00 | 91 | 945.9 |
| 20260905080215 | 66 | 22 | 5.0 | 13.0 | 0.00 | 0.00 | 0.00 | 90 | 945.9 |
| 20260905075714 | 66 | 27 | 6.0 | 13.0 | 0.00 | 0.00 | 0.00 | 91 | 945.8 |
| 20260905075213 | 66 | 32 | 5.0 | 13.0 | 0.00 | 0.00 | 0.00 | 91 | 945.8 |
| 20260905074712 | 66 | 26 | 6.0 | 13.0 | 0.00 | 0.00 | 0.00 | 90 | 946.5 |
| 20260905074211 | 66 | 23 | 5.0 | 14.0 | 0.00 | 0.00 | 0.00 | 90 | 945.7 |
| 20260905073710 | 65 | 28 | 5.0 | 14.0 | 0.00 | 0.00 | 0.00 | 91 | 946.1 |
| 20260905073209 | 66 | 37 | 6.0 | 14.0 | 0.00 | 0.00 | 0.00 | 92 | 946.0 |
| 20260905072708 | 65 | 31 | 7.0 | 15.0 | 0.00 | 0.00 | 0.00 | 92 | 945.9 |
| 20260905072207 | 66 | 30 | 5.0 | 15.0 | 0.00 | 0.00 | 0.00 | 92 | 945.9 |
| 20260905071150 | 66 | 33 | 6.0 | 14.0 | 0.00 | 0.00 | 0.00 | 91 | 945.8 |
| 20260905070649 | 65 | 26 | 5.0 | 14.0 | 0.00 | 0.00 | 0.00 | 92 | 945.7 |
| 20260905070148 | 66 | 32 | 6.0 | 14.0 | 0.00 | 0.00 | 0.00 | 92 | 945.7 |
| 20260905065647 | 66 | 31 | 7.0 | 14.0 | 0.00 | 0.00 | 0.00 | 92 | 945.8 |
| 20260905065146 | 66 | 20 | 5.0 | 12.0 | 0.00 | 0.00 | 0.00 | 92 | 945.8 |
| 20260905064645 | 66 | 22 | 4.0 | 12.0 | 0.00 | 0.00 | 0.00 | 93 | 945.7 |
| 20260905064144 | 66 | 29 | 5.0 | 12.0 | 0.00 | 0.00 | 0.00 | 93 | 945.6 |
| 20260905063643 | 66 | 33 | 7.0 | 12.0 | 0.00 | 0.00 | 0.00 | 93 | 945.7 |
| 20260905063142 | 66 | 44 | 6.0 | 12.0 | 0.00 | 0.00 | 0.00 | 93 | 945.8 |
| 20260905062641 | 66 | 40 | 4.0 | 12.0 | 0.00 | 0.00 | 0.00 | 93 | 945.8 |
| 20260905062140 | 66 | 35 | 5.0 | 12.0 | 0.00 | 0.00 | 0.00 | 94 | 945.8 |
| 20260905061639 | 66 | 43 | 5.0 | 12.0 | 0.00 | 0.00 | 0.00 | 94 | 945.7 |
| 20260905061138 | 66 | 47 | 5.0 | 12.0 | 0.00 | 0.00 | 0.00 | 94 | 945.7 |
| 20260905060637 | 66 | 46 | 5.0 | 12.0 | 0.00 | 0.00 | 0.00 | 94 | 945.6 |
| 20260905055620 | 66 | 51 | 5.0 | 12.0 | 0.00 | 0.00 | 0.00 | 94 | 945.5 |
| 20260905055120 | 66 | 57 | 5.0 | 12.0 | 0.00 | 0.00 | 0.00 | 94 | 945.2 |
| 20260905054618 | 66 | 39 | 5.0 | 12.0 | 0.00 | 0.00 | 0.00 | 93 | 945.3 |
| 20260905054118 | 66 | 34 | 6.0 | 12.0 | 0.00 | 0.00 | 0.00 | 92 | 945.4 |
| 20260905053617 | 66 | 35 | 6.0 | 12.0 | 0.00 | 0.00 | 0.00 | 92 | 945.8 |
| 20260905053116 | 66 | 38 | 5.0 | 12.0 | 0.00 | 0.00 | 0.00 | 91 | 945.4 |
| 20260905052613 | 66 | 33 | 5.0 | 12.0 | 0.00 | 0.00 | 0.00 | 92 | 945.3 |
| 20260905052113 | 66 | 28 | 4.0 | 12.0 | 0.00 | 0.00 | 0.00 | 91 | 945.0 |
| 20260905051611 | 66 | 34 | 4.0 | 12.0 | 0.00 | 0.00 | 0.00 | 91 | 945.1 |
| 20260905051109 | 66 | 39 | 5.0 | 12.0 | 0.00 | 0.00 | 0.00 | 91 | 944.8 |
| 20260905050608 | 66 | 28 | 5.0 | 12.0 | 0.00 | 0.00 | 0.00 | 91 | 944.8 |
| 20260905050107 | 66 | 29 | 5.0 | 12.0 | 0.00 | 0.00 | 0.00 | 91 | 945.0 |
| 20260905045606 | 66 | 31 | 5.0 | 12.0 | 0.00 | 0.00 | 0.00 | 91 | 944.9 |
| 20260905045105 | 66 | 41 | 5.0 | 12.0 | 0.00 | 0.00 | 0.00 | 90 | 945.2 |
| 20260905044605 | 66 | 36 | 5.0 | 12.0 | 0.00 | 0.00 | 0.00 | 91 | 945.0 |
| 20260905044104 | 66 | 35 | 4.0 | 12.0 | 0.00 | 0.00 | 0.00 | 90 | 945.0 |
| 20260905042529 | 67 | 42 | 5.0 | 12.0 | 0.00 | 0.00 | 0.00 | 90 | 944.7 |
| 20260905042028 | 67 | 40 | 4.0 | 12.0 | 0.00 | 0.00 | 0.00 | 89 | 944.6 |
| 20260905041527 | 67 | 32 | 4.0 | 12.0 | 0.00 | 0.00 | 0.00 | 89 | 944.7 |
| 20260905041026 | 67 | 36 | 4.0 | 12.0 | 0.00 | 0.00 | 0.00 | 89 | 945.0 |
| 20260905040525 | 67 | 38 | 6.0 | 12.0 | 0.00 | 0.00 | 0.00 | 89 | 944.4 |
| 20260905040025 | 68 | 32 | 5.0 | 11.0 | 0.00 | 0.00 | 0.00 | 89 | 944.5 |
| 20260905035523 | 68 | 30 | 5.0 | 11.0 | 0.00 | 0.00 | 0.00 | 89 | 944.3 |
| 20260905035022 | 68 | 35 | 5.0 | 11.0 | 0.00 | 0.00 | 0.00 | 89 | 944.4 |
| 20260905034521 | 68 | 33 | 6.0 | 11.0 | 0.00 | 0.00 | 0.00 | 88 | 944.4 |
| 20260905034021 | 68 | 37 | 6.0 | 11.0 | 0.00 | 0.00 | 0.00 | 89 | 944.5 |
| 20260905033519 | 69 | 39 | 6.0 | 11.0 | 0.00 | 0.00 | 0.00 | 89 | 944.6 |
| 20260905033018 | 69 | 35 | 6.0 | 11.0 | 0.00 | 0.00 | 0.00 | 86 | 944.4 |
| 20260905032002 | 69 | 37 | 6.0 | 11.0 | 0.00 | 0.00 | 0.00 | 85 | 944.6 |
| 20260905031459 | 69 | 40 | 6.0 | 11.0 | 0.00 | 0.00 | 0.00 | 84 | 944.6 |
| 20260905030958 | 70 | 39 | 3.0 | 11.0 | 0.00 | 0.00 | 0.00 | 86 | 944.5 |
| 20260905030457 | 70 | 41 | 6.0 | 12.0 | 0.00 | 0.00 | 0.00 | 84 | 944.6 |
| 20260905025957 | 70 | 44 | 6.0 | 12.0 | 0.00 | 0.00 | 0.00 | 83 | 944.6 |
| 20260905025455 | 70 | 41 | 7.0 | 14.0 | 0.00 | 0.00 | 0.00 | 84 | 944.5 |
| 20260905024955 | 70 | 44 | 6.0 | 14.0 | 0.00 | 0.00 | 0.00 | 84 | 944.7 |
| 20260905023937 | 70 | 37 | 6.0 | 14.0 | 0.00 | 0.00 | 0.00 | 86 | 944.3 |
| 20260905022404 | 70 | 39 | 6.0 | 14.0 | 0.00 | 0.00 | 0.00 | 85 | 945.0 |
| 20260905021903 | 70 | 42 | 5.0 | 14.0 | 0.00 | 0.00 | 0.00 | 85 | 944.8 |
| 20260905021402 | 71 | 47 | 5.0 | 14.0 | 0.00 | 0.00 | 0.00 | 86 | 945.0 |